ARIANE 1 DEB, 40775

Orbit data source: Space-Track

ARIANE 1 DEB, 40775 is space debris in HEO originally from a launch on Mon, 24 Dec 1979 UTC launched from the French Guiana (FRGUI). Debris objects in space refer to the collection of defunct objects orbiting the Earth. Examples of debris include non-operational satellites, rocket bodies, and fragments generated from explosions, collisions, or faulty payload assembly.

Loading next visibility...
Identifier
40775, 1979-104AC
Orbit
HEO
Country
Flag of FRFR
Related business
Manufacturer
Unknown
Mission
Spacecraft
Bus & Motor
Unknown
Mass
Unknown
Launch date (UTC)
1979-12-24 (46 years ago)
Launch vehicle
Unknown
Launch site
French Guiana (FRGUI)
Object type
Payload
Rocket body
Debris
Shape & HBR
Unknown
Radar Cross Section
Small (<0.1 m²)

Expand to show TLE details & history
Last TLE update: 1 year ago

TLE from 1 year ago
0 ARIANE 1 DEB
1 40775U 79104AC  24187.87271102 -.00000548  00000-0 -10973-1 0  9994
2 40775  16.1398  99.7141 7224346 274.5783  13.6979  2.14489025 18568
Epoch: 2024-07-05T20:56Z
TLE epoch observation values (Epoch: 2024-07-05T20:56:42.232Z)
Latitude
0.0008°
Longitude
-138.95599°
Altitude
5,132.372 km
Speed
7.318 km/s
True Right ascension
06h 38m 15s
True Declination
0° 00' 03"
Sunlit
Object was in daylight at epoch
Visualization orbit readout
Latitude
Unknown
Longitude
Unknown
Altitude
Unknown
Speed
Unknown
Apparent Right ascension
Unknown
Apparent Declination
Unknown
Sunlit
N/A
Visualization observer readout
Local Sidereal Time
14:31:54
Azimuth
Unknown
Elevation
Unknown
Doppler factor
Unknown
Orbital elements
Apogee altitude
37,376.166 km
Perigee altitude
672.744 km
Semi-major axis
25,402.592 km
Eccentricity
0.72243
Inclination
16.1398°
RAAN
99.7141°
Arg. of periapsis
274.5783°
True anomaly
85.43864°
Mean anomaly
13.6979°
Eccentric anomaly
40.67756°
Mean motion
0.53608 °/min
Orbital period
671.55 mins
BSTAR
-0.010973
Loading maneuver chart data...
Computing Atmospheric mass density...
Loading historical data...
Loading historical data...
Loading historical data...
Loading historical data...
Loading historical data...
Loading historical data...
Loading historical data...

Documentation

Showing up to 5 results
|